SENTINEL-5P

Last updated on Mon Sep 07 2026 00:02:46 GMT+0000 (Coordinated Universal Time)

1 42969U 17064A 26249.47189661 .00000013 00000+0 27359-4 0 9996 2 42969 98.7967 191.0384 0001207 77.4389 282.6922 14.19530399461097
UTC large
Height (km)
Speed (km/s)
/
Latitude / Longitude
Inclination (degrees)
Orbital Period (minutes)
Azimuth
Elevation
Range (km)
Doppler Factor

Next 0 passes for location: London (51.5072 / 0.1276)

No passes found over London.
SENTINEL-5P